Terminal Aerodrome Forecast
Issued by NWS

Home | Current Version | Previous Version | Text Only | Print | Product List | Glossary On
Versions: 1 2 3 4 5 6 7 8 9 10 11 12 13 14 15 16 17 18
000
FTUS44 KMAF 291100
TAFINK
TAF
KINK 291127Z 2912/3012 VRB04KT P6SM FEW250
     FM291800 25009KT P6SM SKC
     FM300500 03015KT P6SM FEW250=

USA.gov is the U.S. government's official web portal to all federal, state and local government web resources and services.